Theta_e
320 319 318 318 318 318 316 314 313 313 314 315 316 316 316 317 317 317 317 318 324 327 325 325 324 324 323 322 322 321 321 320 319 319 319 318 319 320 318 318 319 318 318
322 321 318 318 318 317 317 315 313 313 313 314 315 315 315 316 317 317 317 317 321 326 326 326 326 325 325 324 323 323 322 321 320 319 319 319 319 319 318 318 319 318 317
324 322 319 318 318 317 315 313 312 312 312 313 313 315 315 315 316 317 317 316 317 320 324 327 327 327 327 326 326 325 324 324 322 321 319 319 319 320 319 319 319 319 318
325 322 319 318 318 315 313 311 310 310 310 310 310 311 312 313 314 315 316 316 316 316 319 324 327 327 327 328 328 328 327 326 325 323 322 320 320 320 320 319 319 319 318
327 323 320 319 317 315 312 311 310 310 308 308 309 309 309 309 311 313 313 315 315 315 316 318 320 321 326 327 328 329 329 329 327 325 324 322 321 321 321 320 320 319 319
328 325 323 320 317 314 311 310 309 310 309 307 309 308 308 307 308 309 310 312 314 316 316 315 315 315 317 323 326 328 329 329 329 329 327 325 323 322 321 321 321 321 320
328 326 325 323 321 317 315 314 312 311 309 308 308 307 304 306 306 307 308 309 311 313 313 313 315 315 316 320 323 326 328 329 329 328 328 329 328 325 323 323 322 322 321
328 327 325 324 322 318 316 314 309 306 309 307 307 305 304 307 306 307 306 307 307 309 309 310 311 312 313 314 315 321 323 325 326 326 326 326 327 327 328 326 324 323 323
327 326 325 324 323 320 318 316 313 311 310 308 308 308 303 302 304 306 304 303 304 306 306 305 309 310 310 311 312 314 316 317 319 321 321 322 323 324 325 326 328 328 325
327 326 326 325 324 322 319 318 315 313 312 309 304 307 308 307 303 301 303 302 302 302 302 303 304 305 305 306 307 307 308 311 313 315 316 317 318 320 321 322 323 324 327
326 325 325 324 323 322 321 319 314 313 312 312 308 304 304 303 302 301 298 302 301 301 301 301 301 301 302 302 303 304 307 309 310 311 312 313 314 316 317 318 320 321 323
324 324 323 322 322 320 319 318 317 314 313 312 311 307 305 304 301 299 298 299 300 300 299 299 299 299 299 300 301 301 304 307 308 309 309 310 311 312 314 315 317 317 318
321 321 320 320 319 319 318 317 316 314 312 310 309 309 308 307 306 302 301 301 298 300 301 299 297 297 299 297 298 298 300 304 306 308 309 310 310 311 311 313 314 314 315
319 320 320 319 319 318 318 316 314 313 311 310 309 308 308 307 307 306 303 300 300 300 298 300 297 296 295 298 300 298 300 301 304 306 308 309 309 309 309 310 311 312 312
312 313 314 313 312 312 312 312 311 309 309 308 307 307 306 307 306 306 305 304 301 295 296 299 296 297 299 297 298 300 298 299 303 304 305 306 306 307 307 308 309 309 310
305 305 304 304 302 302 303 303 301 299 299 298 298 297 297 298 298 300 301 302 302 299 294 296 298 299 296 298 298 298 298 296 299 301 302 302 303 304 305 305 305 307 307
298 298 297 296 294 294 294 294 293 293 293 293 292 292 292 293 292 292 293 294 295 296 292 294 294 297 295 295 295 296 296 295 297 298 300 301 301 302 302 302 302 303 304
292 291 291 291 291 290 290 290 289 289 289 288 289 289 289 291 289 290 291 291 292 292 291 288 290 290 291 292 293 293 293 295 295 296 298 298 298 299 299 299 299 300 300
289 289 289 289 288 287 287 287 287 287 287 287 287 287 288 288 286 286 286 288 288 289 288 286 286 288 289 290 290 290 290 291 292 293 295 295 296 295 296 297 298 297 296
287 286 286 285 285 285 286 285 286 286 286 286 286 286 286 286 285 285 286 286 286 286 286 285 285 285 286 287 287 286 286 288 287 289 291 292 294 294 295 295 295 294 293
284 284 284 284 284 285 286 285 285 285 284 284 284 285 285 284 286 287 286 285 285 285 284 283 283 283 283 284 283 285 284 285 285 288 288 288 289 289 290 292 291 291 292
283 283 283 283 283 283 289 290 287 284 283 283 283 283 283 283 284 287 287 287 287 284 283 283 283 282 283 284 284 284 284 283 282 287 286 285 287 287 288 289 291 292 292
282 282 282 282 282 282 288 289 288 284 282 282 282 284 284 284 285 284 286 286 286 287 287 285 282 283 283 284 284 284 284 284 283 285 285 283 284 283 286 286 290 291 291
281 281 280 280 280 282 287 288 287 284 284 284 284 284 284 284 284 284 284 284 284 284 285 285 284 284 285 286 286 285 283 283 283 284 283 280 282 281 284 284 288 289 288
279 279 281 279 278 278 286 287 286 283 284 284 284 284 284 283 285 287 284 283 283 284 287 288 288 289 288 288 287 284 281 280 279 280 279 280 279 279 278 280 279 284 285
280 280 279 277 275 273 283 286 285 281 279 283 284 284 285 284 286 287 284 284 283 283 284 284 284 284 285 284 286 284 282 278 277 276 277 278 278 273 275 270 273 276 277
Wind_Speed
4 3 3 3 3 3 3 3 2 2 1 1 2 2 3 2 1 2 2 6 6 6 6 6 6 6 6 6 6 7 7 7 8 8 8 6 7 8 8 9 10 10 9
5 4 4 4 3 3 3 3 3 2 2 2 3 3 3 3 2 3 3 4 8 9 9 9 9 9 10 9 9 10 10 10 11 11 11 11 11 12 11 11 12 13 13
5 5 4 4 4 4 4 2 1 0 1 2 3 3 3 4 4 4 4 4 5 9 10 12 12 12 12 12 12 12 13 14 14 14 14 15 15 15 15 15 15 15 14
7 5 4 4 4 4 4 3 2 1 2 2 3 4 4 4 5 5 5 4 4 4 7 13 14 15 15 15 15 17 17 18 18 18 18 18 18 18 19 20 19 19 19
5 5 4 4 4 4 3 3 3 2 2 3 4 4 4 4 5 4 7 6 6 5 4 8 12 12 14 18 19 20 19 20 21 21 22 22 22 23 23 22 22 22 22
6 5 4 5 4 3 3 2 4 3 3 3 3 5 4 4 5 6 8 4 5 6 5 5 5 6 12 18 21 22 24 23 22 23 24 24 26 27 26 26 26 26 26
6 6 4 5 5 5 6 5 3 5 3 2 2 3 4 6 6 5 4 4 6 5 5 5 4 4 4 13 17 21 26 26 27 26 25 25 25 29 30 30 30 30 31
7 6 6 6 6 4 5 5 3 2 2 3 2 1 4 5 3 3 2 3 6 3 5 6 6 5 5 5 8 17 20 24 26 27 28 28 27 27 25 32 33 33 34
8 8 7 5 6 5 6 6 6 6 3 2 4 2 2 4 3 2 3 3 4 2 5 5 5 5 5 5 8 11 16 19 23 24 25 28 28 30 30 30 29 31 36
8 8 8 7 7 6 6 6 5 4 4 4 1 4 3 1 2 4 3 3 3 5 6 5 5 5 6 5 8 11 15 18 20 23 24 25 26 27 28 30 31 30 28
7 8 7 7 7 5 6 6 4 6 5 3 4 2 3 3 3 5 4 4 3 4 5 5 5 5 6 6 5 7 14 18 18 19 21 22 23 24 25 26 28 30 31
4 6 6 5 4 4 5 5 5 5 5 4 2 3 3 3 3 4 5 5 6 4 4 5 5 5 5 5 6 10 14 18 20 19 20 21 21 22 24 25 27 28 29
3 4 4 4 3 4 4 4 4 4 4 3 4 3 3 4 2 2 2 4 4 3 4 4 4 4 5 4 5 8 10 15 18 20 19 18 21 22 23 24 26 27 28
3 1 3 3 2 1 1 2 1 2 2 2 2 2 2 2 2 2 2 3 10 6 2 8 3 4 4 4 6 11 7 14 18 20 21 21 23 23 23 25 27 28 29
4 6 7 6 6 6 5 4 4 3 3 3 2 2 2 2 2 3 3 3 6 10 9 7 4 2 4 4 6 6 7 12 17 21 22 23 25 25 25 26 28 29 30
5 6 7 7 7 7 6 6 5 5 5 4 4 5 4 4 4 4 3 4 3 7 10 2 7 7 5 5 7 8 9 12 14 17 21 22 24 26 28 28 28 29 30
6 7 7 7 7 6 6 7 6 6 7 6 5 5 5 5 4 4 4 4 4 5 11 10 6 8 8 8 9 7 8 8 9 15 20 23 24 25 26 28 30 30 30
6 7 7 7 7 7 6 6 6 5 6 5 5 5 5 3 4 4 3 5 5 6 8 17 11 10 12 12 12 13 10 8 9 14 21 25 25 27 27 29 31 30 29
7 7 7 7 6 6 6 6 5 5 5 4 4 5 5 4 4 3 3 5 7 7 9 10 12 8 8 8 11 10 9 10 7 13 21 22 24 28 28 29 30 30 30
7 6 6 6 6 5 6 5 5 5 5 4 4 4 4 4 5 5 6 5 6 8 8 9 11 12 9 9 9 10 12 9 11 10 15 19 20 21 25 28 28 28 28
5 5 6 6 6 5 4 4 5 5 5 5 5 4 4 4 7 7 5 5 6 6 8 10 10 12 12 10 11 10 12 13 12 11 10 6 6 11 13 19 19 24 28
6 6 6 6 6 4 6 6 5 3 4 4 5 4 5 5 7 11 12 14 12 8 10 8 9 10 12 11 11 9 11 12 13 4 11 14 10 11 10 9 21 28 31
5 6 6 5 4 2 7 7 7 4 4 4 4 6 6 5 8 7 11 15 11 15 16 12 13 10 14 12 12 14 12 11 13 12 12 16 6 11 9 10 23 27 29
5 3 2 2 1 3 7 8 7 4 5 5 4 4 4 5 6 8 8 9 9 8 9 8 9 12 13 12 10 10 13 15 12 9 6 14 10 11 10 9 23 24 24
2 2 2 4 4 3 6 7 6 2 5 5 4 5 4 5 10 15 11 10 10 9 8 15 19 22 21 23 19 10 9 10 13 11 4 7 5 11 6 9 5 15 21
2 1 3 2 3 3 6 7 6 1 2 4 3 5 8 8 16 17 10 10 12 10 9 9 7 11 13 13 18 8 7 10 10 9 1 8 10 3 7 3 4 4 9
Wind_Direction
170 164 178 175 183 182 184 193 225 236 257 311 329 339 338 25 101 210 244 240 217 214 225 229 230 231 232 236 230 229 230 238 226 236 242 223 225 233 203 217 216 203 204
169 179 181 202 199 199 211 197 205 215 258 311 300 302 295 298 272 228 231 245 248 237 232 240 244 242 241 243 241 244 248 242 235 239 237 238 236 231 215 219 216 221 219
181 175 182 193 204 202 194 197 220 232 276 285 274 285 278 272 274 265 242 236 249 252 251 246 244 246 250 252 250 248 248 244 243 238 242 248 235 236 237 224 226 225 221
183 184 187 197 195 178 176 176 180 235 266 273 286 278 278 281 275 270 262 244 235 235 248 249 255 253 252 259 252 250 244 244 240 243 238 236 243 239 234 237 230 228 227
181 169 195 213 189 179 180 176 192 178 244 276 274 284 281 275 272 272 263 254 242 243 243 249 252 258 262 262 266 267 262 257 251 248 238 234 234 237 237 238 232 229 230
180 175 186 195 184 174 189 185 199 197 211 238 271 271 263 260 254 247 253 260 255 253 252 246 248 258 257 263 267 271 275 277 273 268 259 244 240 234 236 232 233 231 228
192 184 188 191 174 183 200 195 189 211 229 191 307 305 277 243 247 256 255 248 253 246 259 265 252 245 256 262 268 268 274 278 282 285 277 273 255 251 241 233 233 231 230
202 196 198 200 189 183 193 202 177 172 224 190 195 101 310 324 336 256 273 269 270 276 265 258 262 254 250 254 254 264 273 280 285 291 293 290 289 283 270 245 243 235 234
199 199 202 198 194 184 206 202 187 190 213 173 206 201 264 248 322 310 293 293 275 271 273 270 265 266 269 262 269 273 273 275 282 286 289 292 293 294 293 290 286 253 239
206 203 205 203 204 198 198 208 192 195 163 211 201 234 247 165 245 312 324 316 329 292 286 284 272 268 261 258 264 267 274 277 281 285 289 291 293 294 294 293 292 286 287
203 201 205 201 204 205 209 199 178 190 193 193 188 171 211 208 215 236 270 303 309 264 263 258 266 270 266 263 259 257 266 277 283 287 289 291 293 295 296 296 294 293 290
194 205 198 202 202 198 201 203 210 203 211 214 208 185 196 185 201 200 242 256 264 290 261 272 272 264 267 268 270 275 282 287 292 293 289 287 291 292 293 294 295 295 293
182 207 181 187 193 206 205 206 203 210 195 188 202 217 225 227 204 209 243 274 261 282 292 252 255 261 268 277 281 275 280 286 292 292 291 293 291 289 292 291 292 291 289
97 74 185 171 221 217 208 168 130 156 165 212 256 252 258 250 247 229 230 265 297 284 271 272 272 251 274 267 260 272 276 276 283 287 290 293 292 290 292 291 291 289 287
72 72 70 86 72 64 66 72 81 62 60 52 30 349 338 323 295 273 269 277 296 302 297 290 287 302 296 282 266 278 277 277 276 287 290 294 293 290 291 291 289 288 289
74 79 77 72 68 56 52 61 61 36 59 36 30 17 6 355 347 338 318 303 270 288 290 12 301 310 299 299 292 289 288 283 287 285 293 296 296 296 296 294 292 290 288
70 72 71 74 70 64 54 66 60 45 50 36 26 21 2 359 348 340 339 329 315 304 288 296 302 301 304 300 304 294 295 294 288 291 289 296 295 298 299 299 296 293 290
72 82 81 77 72 64 55 62 63 53 55 41 22 16 355 346 346 339 322 313 307 306 299 298 306 310 310 310 303 303 300 288 290 291 293 295 296 295 296 298 298 296 294
80 72 77 77 73 69 68 59 66 58 51 41 15 358 337 339 329 322 323 323 316 310 305 300 302 304 304 309 308 302 300 294 289 289 290 291 289 291 291 288 289 293 295
83 77 74 85 84 82 68 60 53 44 29 17 1 344 336 339 332 324 322 306 314 311 305 302 303 309 312 316 308 312 310 307 303 297 289 284 285 286 290 294 292 289 292
85 89 85 68 58 55 37 39 37 30 16 354 353 348 339 330 325 328 319 312 309 306 306 305 303 307 310 317 313 309 297 305 303 291 299 297 299 298 294 293 286 285 286
69 66 57 54 45 33 28 30 50 34 21 358 352 357 348 344 337 334 329 322 316 311 303 296 295 294 298 302 302 301 299 302 309 297 326 302 293 291 285 282 283 291 296
65 61 54 50 46 29 33 36 38 43 33 23 5 356 347 339 334 318 320 318 312 304 304 300 293 294 296 299 298 294 292 295 298 305 300 295 303 295 294 290 291 290 292
72 72 55 55 29 17 30 37 39 35 21 357 346 328 314 313 314 315 302 303 292 284 279 277 277 289 288 295 301 305 305 296 288 288 271 290 309 296 303 294 288 302 305
63 45 6 16 18 352 16 27 33 20 356 339 327 303 295 294 293 306 307 296 294 291 282 301 295 297 308 306 300 304 300 298 303 310 287 290 317 305 290 293 301 312 316
80 47 26 8 318 311 333 2 9 253 298 324 299 293 297 305 315 313 306 304 305 313 310 301 300 295 292 288 295 304 325 310 306 311 297 329 314 322 309 278 289 308 316